Location: *
(41.7492°S, 135.4150°W)
Time: 03:43:00
(UTC+00:00)

AO-27 - Pass Details

Date: 05 July 2022
Orbit: 786 x 796 km, 98.9° (Epoch: 14 August)

Event Time Altitude Azimuth Distance (km) Brightness Sun altitude
Rises 14:30:38 0° 65° (ENE) 3,305 12.3 -21.4°
Reaches altitude 10° 14:33:55 10° 87° (E) 2,384 11.3 -20.8°
Maximum altitude 14:36:50 15° 121° (ESE) 2,045 10.4 -20.2°
Drops below altitude 10° 14:39:46 10° 155° (SSE) 2,395 10.3 -19.7°
Sets 14:43:04 0° 176° (S) 3,332 10.8 -19.1°
